Weather History for Los Angeles, CA

Change the Weather History Date:

Sunday, January 27, 2013

  Actual Average Record
Temperature  
Mean Temperature 56 °F 57 °F  
Max Temperature 59 °F 65 °F 83 °F (1986)
Min Temperature 53 °F 49 °F 35 °F (1950)
Degree Days  
Heating Degree Days 9 8  
Month to date heating degree days 224 227  
Since 1 July heating degree days 583 669  
Cooling Degree Days 0 0  
Month to date cooling degree days 6 0  
Year to date cooling degree days 6 0  
Growing Degree Days 6 (Base 50)    
Moisture  
Dew Point 47 °F    
Average Humidity 69    
Maximum Humidity 100    
Minimum Humidity 38    
Precipitation  
Precipitation 0.02 in 0.08 in 1.50 in (1983)
Month to date precipitation 1.30 2.35  
Year to date precipitation 1.30 2.35  
Since 1 July precipitation 5.58 6.36  
Sea Level Pressure  
Sea Level Pressure 30.00 in    
Wind  
Wind Speed 9 mph (West)    
Max Wind Speed 21 mph    
Max Gust Speed 28 mph    
Visibility 8 miles    
Events Rain    
T = Trace of Precipitation, MM = Missing Value Source: NWS Daily Summary

Daily Weather History Graph

Daily Weather History Graph

Search for Another Location

Airport:

Trip Planner

Search our weather history database for the weather conditions in past years. The results will help you decide how hot, cold, wet, or windy it might be!

Date:

Astronomy

Jan. 27, 2013 Rise Set
Actual Time 6:53 AM PST 5:19 PM PST
Civil Twilight 6:27 AM PST 5:46 PM PST
Nautical Twilight 5:56 AM PST 6:16 PM PST
Astronomical Twilight 5:27 AM PST 6:45 PM PST
Moon 6:13 PM PST (1/27) 6:53 AM PST (1/27)
Length of Visible Light 11h 19m
Length of Day
10h 26m
Full, 100% of the Moon is Illuminated
Jan 27
Full
Feb 3
Last Quarter
Feb 9
New
Feb 17
First Quarter
Feb 25
Full

Hourly Weather History & Observations

Time (PST) Temp. Dew Point Humidity Pressure Visibility Wind Dir Wind Speed Gust Speed Precip Events Conditions
12:28 AM 57.2 °F 53.6 °F 88% 30.00 in 10.0 mi WSW 4.6 mph - N/A   Overcast
12:53 AM 57.0 °F 54.0 °F 89% 30.00 in 10.0 mi WSW 3.5 mph - N/A   Overcast
1:53 AM 55.9 °F 55.0 °F 97% 30.00 in 4.0 mi West 5.8 mph - N/A   Overcast
2:53 AM 55.9 °F 55.0 °F 97% 29.99 in 8.0 mi Calm Calm - N/A   Overcast
3:09 AM 55.4 °F 55.4 °F 100% 29.99 in 8.0 mi Calm Calm - N/A   Overcast
3:40 AM 55.4 °F 55.4 °F 100% 29.99 in 8.0 mi West 3.5 mph - N/A   Overcast
3:53 AM 55.9 °F 54.0 °F 93% 29.99 in 4.0 mi West 6.9 mph - N/A   Overcast
4:15 AM 55.4 °F 53.6 °F 94% 29.98 in 2.5 mi West 3.5 mph - 0.00 in Rain Light Rain
4:33 AM 55.4 °F 53.6 °F 94% 29.98 in 3.0 mi West 3.5 mph - 0.01 in Rain Light Rain
4:53 AM 55.0 °F 54.0 °F 96% 29.98 in 4.0 mi West 6.9 mph - 0.01 in   Overcast
5:08 AM 55.4 °F 53.6 °F 94% 29.98 in 6.0 mi West 11.5 mph - N/A   Overcast
5:35 AM 55.4 °F 51.8 °F 88% 29.98 in 7.0 mi WNW 9.2 mph - 0.00 in   Overcast
5:53 AM 55.0 °F 51.1 °F 86% 29.98 in 8.0 mi WNW 9.2 mph - 0.00 in   Overcast
6:37 AM 53.6 °F 51.8 °F 94% 30.00 in 5.0 mi West 11.5 mph - 0.01 in Rain Light Rain
6:53 AM 55.0 °F 51.1 °F 86% 30.00 in 8.0 mi West 6.9 mph - 0.01 in   Overcast
7:53 AM 55.0 °F 51.1 °F 86% 30.00 in 9.0 mi WSW 11.5 mph - N/A   Mostly Cloudy
8:43 AM 55.4 °F 51.8 °F 88% 30.01 in 10.0 mi West 11.5 mph - N/A   Mostly Cloudy
8:53 AM 55.9 °F 51.1 °F 84% 30.01 in 10.0 mi WSW 11.5 mph - N/A   Mostly Cloudy
9:14 AM 55.4 °F 51.8 °F 88% 30.02 in 10.0 mi WSW 11.5 mph - N/A   Mostly Cloudy
9:53 AM 55.9 °F 51.1 °F 84% 30.03 in 10.0 mi WSW 10.4 mph - N/A   Mostly Cloudy
10:17 AM 55.4 °F 51.8 °F 88% 30.04 in 10.0 mi West 11.5 mph - N/A   Mostly Cloudy
10:53 AM 55.9 °F 50.0 °F 80% 30.03 in 10.0 mi WSW 9.2 mph - N/A   Scattered Clouds
11:53 AM 57.9 °F 48.9 °F 72% 30.01 in 10.0 mi SW 9.2 mph 17.3 mph N/A   Partly Cloudy
12:53 PM 59.0 °F 46.9 °F 64% 29.99 in 10.0 mi SSW 11.5 mph - N/A   Partly Cloudy
1:53 PM 57.9 °F 46.9 °F 67% 29.98 in 10.0 mi SW 11.5 mph - N/A   Scattered Clouds
2:53 PM 57.9 °F 45.0 °F 62% 29.97 in 10.0 mi WSW 16.1 mph - N/A   Mostly Cloudy
3:53 PM 57.9 °F 45.0 °F 62% 29.97 in 10.0 mi WSW 10.4 mph - N/A   Mostly Cloudy
4:53 PM 57.0 °F 46.0 °F 67% 29.96 in 10.0 mi SW 6.9 mph - N/A   Mostly Cloudy
5:53 PM 55.0 °F 37.0 °F 51% 29.97 in 10.0 mi NNE 10.4 mph - N/A   Mostly Cloudy
6:53 PM 54.0 °F 39.0 °F 57% 29.98 in 10.0 mi NNE 5.8 mph - N/A   Scattered Clouds
7:53 PM 55.0 °F 30.9 °F 40% 29.99 in 10.0 mi NNE 12.7 mph 18.4 mph N/A   Scattered Clouds
8:53 PM 54.0 °F 30.0 °F 40% 29.99 in 10.0 mi North 11.5 mph 18.4 mph N/A   Scattered Clouds
9:53 PM 54.0 °F 28.9 °F 38% 30.00 in 10.0 mi North 13.8 mph 23.0 mph N/A   Scattered Clouds
10:53 PM 53.1 °F 28.9 °F 40% 30.03 in 10.0 mi Variable 3.5 mph - N/A   Partly Cloudy
11:53 PM 53.1 °F 26.1 °F 35% 30.04 in 10.0 mi North 8.1 mph 16.1 mph N/A   Scattered Clouds